| time (UTC) | temp F | wind direction | speed knots | gust knots | rain 1hr in | rain 24hr in | rain mn in | humidity % | barometer mb |
| 20260506051007 | 62 | 277 | 2.6 | 11.3 | 0.00 | 0.04 | 0.04 | 77 | 1023.4 |
| 20260506050510 | 63 | 264 | 4.3 | 11.3 | 0.00 | 0.04 | 0.04 | 77 | 1023.5 |
| 20260506045010 | 63 | 285 | 0.9 | 6.1 | 0.00 | 0.04 | 0.04 | 78 | 1023.2 |
| 20260506044527 | 63 | 286 | 2.6 | 8.7 | 0.00 | 0.04 | 0.04 | 78 | 1023.2 |
| 20260506044008 | 63 | 254 | 2.6 | 9.6 | 0.00 | 0.04 | 0.04 | 79 | 1023.2 |
| 20260506043509 | 63 | 248 | 1.7 | 9.6 | 0.00 | 0.04 | 0.04 | 79 | 1023.2 |
| 20260506043028 | 63 | 0 | 2.6 | 7.8 | 0.00 | 0.04 | 0.04 | 80 | 1023.3 |
| 20260506042511 | 63 | 274 | 2.6 | 7.8 | 0.00 | 0.04 | 0.04 | 80 | 1023.3 |
| 20260506042011 | 63 | 211 | 1.7 | 10.4 | 0.00 | 0.04 | 0.04 | 81 | 1023.2 |
| 20260506041529 | 63 | 219 | 0.9 | 10.4 | 0.00 | 0.04 | 0.04 | 81 | 1023.2 |
| 20260506041011 | 62 | 155 | 2.6 | 9.6 | 0.00 | 0.04 | 0.04 | 81 | 1023.4 |
| 20260506040510 | 62 | 252 | 2.6 | 7.0 | 0.00 | 0.04 | 0.04 | 82 | 1023.4 |
| 20260506040037 | 62 | 251 | 1.7 | 7.0 | 0.02 | 0.04 | 0.04 | 83 | 1023.4 |
| 20260506035510 | 62 | 0 | 0.9 | 7.0 | 0.03 | 0.04 | 0.04 | 83 | 1023.5 |
| 20260506035011 | 62 | 256 | 1.7 | 7.0 | 0.03 | 0.04 | 0.04 | 83 | 1023.6 |
| 20260506034529 | 62 | 222 | 1.7 | 12.2 | 0.03 | 0.04 | 0.04 | 83 | 1023.7 |
| 20260506034012 | 62 | 227 | 1.7 | 12.2 | 0.03 | 0.04 | 0.04 | 83 | 1023.5 |
| 20260506033511 | 62 | 275 | 2.6 | 9.6 | 0.03 | 0.04 | 0.04 | 82 | 1023.7 |
| 20260506033026 | 62 | 260 | 2.6 | 9.6 | 0.03 | 0.04 | 0.04 | 82 | 1023.6 |
| 20260506032511 | 63 | 255 | 2.6 | 7.0 | 0.03 | 0.04 | 0.04 | 81 | 1023.5 |
| 20260506032011 | 63 | 263 | 0.9 | 10.4 | 0.03 | 0.04 | 0.04 | 81 | 1023.7 |
| 20260506031530 | 63 | 263 | 2.6 | 10.4 | 0.03 | 0.04 | 0.04 | 79 | 1023.8 |
| 20260506031010 | 63 | 277 | 3.5 | 13.0 | 0.03 | 0.04 | 0.04 | 78 | 1023.9 |
| 20260506030513 | 64 | 313 | 4.3 | 13.0 | 0.02 | 0.03 | 0.03 | 76 | 1024.1 |
| 20260506030028 | 65 | 292 | 4.3 | 9.6 | 0.00 | 0.01 | 0.01 | 74 | 1024.0 |
| 20260506025510 | 65 | 294 | 4.3 | 9.6 | 0.00 | 0.01 | 0.01 | 73 | 1023.9 |
| 20260506025010 | 66 | 302 | 2.6 | 9.6 | 0.00 | 0.01 | 0.01 | 73 | 1024.0 |
| 20260506024531 | 65 | 296 | 3.5 | 9.6 | 0.00 | 0.01 | 0.01 | 73 | 1024.0 |
| 20260506024010 | 65 | 294 | 3.5 | 9.6 | 0.00 | 0.01 | 0.01 | 72 | 1024.1 |
| 20260506023508 | 65 | 307 | 3.5 | 8.7 | 0.00 | 0.01 | 0.01 | 72 | 1024.3 |
| 20260506023030 | 65 | 296 | 2.6 | 8.7 | 0.00 | 0.01 | 0.01 | 72 | 1024.4 |
| 20260506022510 | 65 | 294 | 2.6 | 8.7 | 0.00 | 0.01 | 0.01 | 72 | 1024.5 |
| 20260506022012 | 65 | 294 | 3.5 | 9.6 | 0.00 | 0.01 | 0.01 | 72 | 1024.6 |
| 20260506021533 | 65 | 298 | 1.7 | 9.6 | 0.00 | 0.01 | 0.01 | 72 | 1024.7 |
| 20260506021008 | 65 | 285 | 2.6 | 7.8 | 0.00 | 0.01 | 0.01 | 73 | 1024.6 |
| 20260506020507 | 65 | 284 | 1.7 | 7.8 | 0.00 | 0.01 | 0.01 | 73 | 1024.6 |
| 20260506020033 | 65 | 285 | 2.6 | 7.8 | 0.00 | 0.01 | 0.01 | 75 | 1024.6 |
| 20260506015507 | 64 | 282 | 1.7 | 7.8 | 0.00 | 0.01 | 0.01 | 76 | 1024.5 |
| 20260506015019 | 64 | 284 | 3.5 | 7.8 | 0.00 | 0.01 | 0.01 | 76 | 1024.6 |
| 20260506014528 | 63 | 271 | 2.6 | 9.6 | 0.00 | 0.01 | 0.01 | 79 | 1024.7 |
| 20260506014009 | 63 | 266 | 3.5 | 9.6 | 0.00 | 0.01 | 0.01 | 79 | 1024.8 |
| 20260506013508 | 62 | 281 | 2.6 | 7.0 | 0.00 | 0.01 | 0.01 | 80 | 1024.9 |
| 20260506013030 | 62 | 284 | 2.6 | 7.0 | 0.00 | 0.01 | 0.01 | 81 | 1024.9 |
| 20260506012511 | 62 | 281 | 2.6 | 7.0 | 0.00 | 0.01 | 0.01 | 81 | 1024.8 |
| 20260506012008 | 62 | 276 | 2.6 | 7.0 | 0.00 | 0.01 | 0.01 | 82 | 1024.9 |
| 20260506011531 | 62 | 295 | 0.9 | 7.0 | 0.00 | 0.01 | 0.01 | 83 | 1024.9 |
| 20260506011010 | 62 | 0 | 0.0 | 2.6 | 0.00 | 0.01 | 0.01 | 83 | 1024.9 |
| 20260506010511 | 62 | 0 | 0.0 | 7.0 | 0.00 | 0.01 | 0.01 | 83 | 1024.8 |
| 20260506010044 | 62 | 297 | 1.7 | 7.0 | 0.00 | 0.01 | 0.01 | 83 | 1025.0 |
| 20260506005508 | 61 | 281 | 0.0 | 2.6 | 0.00 | 0.01 | 0.01 | 84 | 1024.9 |
| 20260506005008 | 61 | 0 | 0.0 | 2.6 | 0.00 | 0.01 | 0.01 | 84 | 1025.1 |
| 20260506004527 | 61 | 274 | 0.0 | 2.6 | 0.00 | 0.01 | 0.01 | 83 | 1025.1 |
| 20260506004010 | 61 | 0 | 0.9 | 2.6 | 0.00 | 0.01 | 0.01 | 83 | 1025.1 |
| 20260506003512 | 61 | 0 | 0.0 | 1.7 | 0.00 | 0.01 | 0.01 | 83 | 1025.1 |
| 20260506003026 | 60 | 273 | 0.0 | 2.6 | 0.00 | 0.01 | 0.01 | 83 | 1025.2 |
| 20260506002507 | 60 | 273 | 0.0 | 2.6 | 0.00 | 0.01 | 0.01 | 83 | 1025.2 |
| 20260506002011 | 60 | 0 | 0.0 | 2.6 | 0.00 | 0.01 | 0.01 | 83 | 1025.1 |
| 20260506001528 | 60 | 273 | 0.0 | 2.6 | 0.00 | 0.01 | 0.01 | 83 | 1025.1 |
| 20260506001009 | 60 | 0 | 0.0 | 3.5 | 0.00 | 0.00 | 0.00 | 83 | 1025.0 |
| 20260506000511 | 60 | 0 | 0.0 | 3.5 | 0.00 | 0.00 | 0.00 | 83 | 1025.1 |
| 20260506000027 | 60 | 0 | 0.0 | 3.5 | 0.00 | 0.00 | 0.00 | 83 | 1025.2 |
| 20260505235509 | 60 | 0 | 0.0 | 1.7 | 0.00 | 0.00 | 0.00 | 83 | 1025.0 |
| 20260505235027 | 61 | 273 | 0.0 | 1.7 | 0.00 | 0.00 | 0.00 | 84 | 1025.2 |
| 20260505234536 | 61 | 0 | 0.0 | 3.5 | 0.00 | 0.00 | 0.00 | 84 | 1025.2 |
| 20260505234012 | 61 | 0 | 0.0 | 3.5 | 0.00 | 0.00 | 0.00 | 85 | 1025.1 |
| 20260505233509 | 60 | 273 | 0.0 | 5.2 | 0.00 | 0.00 | 0.00 | 85 | 1025.2 |
| 20260505233036 | 60 | 272 | 0.0 | 5.2 | 0.00 | 0.00 | 0.00 | 84 | 1025.2 |
| 20260505232511 | 59 | 271 | 0.9 | 5.2 | 0.00 | 0.00 | 0.00 | 84 | 1025.2 |
| 20260505232009 | 59 | 259 | 0.0 | 2.6 | 0.00 | 0.00 | 0.00 | 84 | 1025.3 |
| 20260505231532 | 59 | 0 | 0.0 | 2.6 | 0.00 | 0.00 | 0.00 | 84 | 1025.3 |
| 20260505231009 | 58 | 0 | 0.0 | 2.6 | 0.00 | 0.00 | 0.00 | 84 | 1025.2 |
| 20260505230511 | 58 | 0 | 0.0 | 2.6 | 0.00 | 0.00 | 0.00 | 83 | 1025.1 |
| 20260505230028 | 58 | 259 | 0.0 | 2.6 | 0.00 | 0.00 | 0.00 | 83 | 1025.2 |
| 20260505225512 | 58 | 0 | 0.0 | 1.7 | 0.00 | 0.00 | 0.00 | 84 | 1025.1 |
| 20260505225013 | 58 | 0 | 0.0 | 3.5 | 0.00 | 0.00 | 0.00 | 83 | 1025.1 |
| 20260505224533 | 58 | 0 | 0.0 | 3.5 | 0.00 | 0.00 | 0.00 | 83 | 1024.9 |
| 20260505224011 | 58 | 258 | 0.0 | 3.5 | 0.00 | 0.00 | 0.00 | 83 | 1024.9 |
| 20260505223516 | 58 | 0 | 0.0 | 3.5 | 0.00 | 0.00 | 0.00 | 83 | 1024.8 |
| 20260505223030 | 57 | 250 | 0.9 | 3.5 | 0.00 | 0.00 | 0.00 | 83 | 1024.7 |
| 20260505222516 | 57 | 0 | 0.0 | 1.7 | 0.00 | 0.00 | 0.00 | 82 | 1024.8 |
| 20260505222013 | 57 | 249 | 0.0 | 1.7 | 0.00 | 0.00 | 0.00 | 82 | 1024.6 |
| 20260505221528 | 57 | 0 | 0.0 | 1.7 | 0.00 | 0.00 | 0.00 | 82 | 1024.7 |
| 20260505221020 | 57 | 0 | 0.0 | 1.7 | 0.00 | 0.00 | 0.00 | 82 | 1024.6 |
| 20260505220510 | 57 | 249 | 0.0 | 1.7 | 0.00 | 0.00 | 0.00 | 82 | 1024.5 |
| 20260505220027 | 57 | 0 | 0.0 | 1.7 | 0.00 | 0.00 | 0.00 | 82 | 1024.6 |
| 20260505215509 | 57 | 0 | 0.0 | 1.7 | 0.00 | 0.00 | 0.00 | 81 | 1024.4 |
| 20260505215012 | 57 | 0 | 0.0 | 0.9 | 0.00 | 0.00 | 0.00 | 81 | 1024.4 |
| 20260505214556 | 57 | 0 | 0.0 | 0.9 | 0.00 | 0.00 | 0.00 | 81 | 1024.4 |
| 20260505214014 | 57 | 0 | 0.0 | 1.7 | 0.00 | 0.00 | 0.00 | 81 | 1024.2 |
| 20260505213513 | 57 | 0 | 0.0 | 1.7 | 0.00 | 0.00 | 0.00 | 81 | 1024.3 |
| 20260505213030 | 57 | 0 | 0.0 | 0.9 | 0.00 | 0.00 | 0.00 | 81 | 1024.2 |
| 20260505212518 | 57 | 0 | 0.0 | 2.6 | 0.00 | 0.00 | 0.00 | 81 | 1024.2 |
| 20260505212014 | 57 | 0 | 0.0 | 2.6 | 0.00 | 0.00 | 0.00 | 81 | 1024.1 |
| 20260505211531 | 57 | 0 | 0.0 | 1.7 | 0.00 | 0.00 | 0.00 | 81 | 1024.2 |
| 20260505211011 | 57 | 0 | 0.0 | 0.9 | 0.00 | 0.00 | 0.00 | 81 | 1024.1 |
| 20260505210510 | 57 | 0 | 0.0 | 1.7 | 0.00 | 0.00 | 0.00 | 81 | 1024.2 |
| 20260505210030 | 57 | 0 | 0.0 | 1.7 | 0.00 | 0.00 | 0.00 | 81 | 1024.2 |
| 20260505205509 | 57 | 0 | 0.0 | 0.9 | 0.00 | 0.00 | 0.00 | 81 | 1024.2 |
| 20260505205015 | 57 | 0 | 0.0 | 2.6 | 0.00 | 0.00 | 0.00 | 81 | 1024.2 |
| 20260505204528 | 57 | 0 | 0.0 | 2.6 | 0.00 | 0.00 | 0.00 | 81 | 1024.1 |
| 20260505204017 | 57 | 0 | 0.0 | 2.6 | 0.00 | 0.00 | 0.00 | 81 | 1024.2 |
| 20260505203512 | 57 | 0 | 0.0 | 2.6 | 0.00 | 0.00 | 0.00 | 81 | 1024.1 |
| 20260505203035 | 57 | 0 | 0.0 | 2.6 | 0.00 | 0.00 | 0.00 | 81 | 1024.2 |
| 20260505202513 | 57 | 0 | 0.0 | 2.6 | 0.00 | 0.00 | 0.00 | 81 | 1024.1 |
| 20260505202013 | 57 | 0 | 0.0 | 2.6 | 0.00 | 0.00 | 0.00 | 81 | 1024.1 |
| 20260505201535 | 57 | 0 | 0.0 | 2.6 | 0.00 | 0.00 | 0.00 | 81 | 1024.0 |
| 20260505201012 | 57 | 248 | 0.0 | 2.6 | 0.00 | 0.00 | 0.00 | 81 | 1024.0 |
| 20260505200509 | 57 | 0 | 0.0 | 1.7 | 0.00 | 0.00 | 0.00 | 81 | 1024.1 |
| 20260505200029 | 57 | 248 | 0.0 | 1.7 | 0.00 | 0.00 | 0.00 | 81 | 1024.0 |
| 20260505195513 | 57 | 0 | 0.0 | 1.7 | 0.00 | 0.00 | 0.00 | 81 | 1024.1 |
| 20260505195010 | 57 | 0 | 0.0 | 1.7 | 0.00 | 0.00 | 0.00 | 81 | 1024.0 |
| 20260505194528 | 57 | 0 | 0.0 | 1.7 | 0.00 | 0.00 | 0.00 | 81 | 1024.0 |
| 20260505194014 | 57 | 0 | 0.0 | 0.0 | 0.00 | 0.00 | 0.00 | 81 | 1024.0 |
| 20260505193510 | 57 | 0 | 0.0 | 0.9 | 0.00 | 0.00 | 0.00 | 81 | 1024.1 |
| 20260505193031 | 57 | 0 | 0.0 | 2.6 | 0.00 | 0.00 | 0.00 | 81 | 1024.1 |
| 20260505192510 | 57 | 248 | 0.0 | 2.6 | 0.00 | 0.01 | 0.00 | 81 | 1024.0 |
| 20260505192009 | 57 | 248 | 0.0 | 2.6 | 0.00 | 0.01 | 0.00 | 81 | 1024.1 |
| 20260505191530 | 57 | 0 | 0.0 | 2.6 | 0.00 | 0.01 | 0.00 | 81 | 1024.0 |
| 20260505191011 | 57 | 248 | 0.0 | 2.6 | 0.00 | 0.01 | 0.00 | 81 | 1024.0 |
| 20260505190510 | 57 | 248 | 0.0 | 2.6 | 0.00 | 0.01 | 0.00 | 81 | 1024.0 |
| 20260505190027 | 57 | 0 | 0.0 | 2.6 | 0.00 | 0.01 | 0.00 | 81 | 1024.1 |
| 20260505185515 | 57 | 0 | 0.0 | 2.6 | 0.00 | 0.01 | 0.00 | 81 | 1024.1 |
| 20260505185015 | 57 | 248 | 0.0 | 2.6 | 0.00 | 0.01 | 0.00 | 81 | 1024.1 |
| 20260505184530 | 57 | 248 | 0.0 | 1.7 | 0.00 | 0.01 | 0.00 | 82 | 1024.0 |
| 20260505184012 | 57 | 0 | 0.0 | 1.7 | 0.00 | 0.01 | 0.00 | 82 | 1024.1 |
| 20260505183511 | 57 | 0 | 0.0 | 1.7 | 0.00 | 0.01 | 0.00 | 82 | 1024.2 |
| 20260505183028 | 57 | 246 | 0.0 | 1.7 | 0.00 | 0.01 | 0.00 | 82 | 1024.2 |
| 20260505182517 | 57 | 0 | 0.0 | 0.9 | 0.00 | 0.01 | 0.00 | 82 | 1024.1 |
| 20260505182010 | 57 | 0 | 0.0 | 1.7 | 0.00 | 0.01 | 0.00 | 82 | 1024.1 |
| 20260505181529 | 57 | 0 | 0.0 | 1.7 | 0.00 | 0.01 | 0.00 | 82 | 1024.1 |
| 20260505181012 | 57 | 0 | 0.0 | 1.7 | 0.00 | 0.01 | 0.00 | 82 | 1024.1 |
| 20260505180510 | 57 | 0 | 0.0 | 0.9 | 0.00 | 0.01 | 0.00 | 81 | 1024.1 |
| 20260505180054 | 57 | 0 | 0.0 | 0.9 | 0.00 | 0.01 | 0.00 | 81 | 1024.1 |
| 20260505175510 | 57 | 0 | 0.0 | 2.6 | 0.00 | 0.01 | 0.00 | 81 | 1024.3 |
| 20260505175015 | 57 | 0 | 0.0 | 2.6 | 0.00 | 0.01 | 0.00 | 81 | 1024.3 |
| 20260505174549 | 57 | 0 | 0.0 | 0.9 | 0.00 | 0.01 | 0.00 | 81 | 1024.2 |
| 20260505174012 | 57 | 0 | 0.0 | 0.9 | 0.00 | 0.01 | 0.00 | 81 | 1024.2 |
| 20260505173513 | 57 | 0 | 0.0 | 0.0 | 0.00 | 0.01 | 0.00 | 81 | 1024.4 |
| 20260505173033 | 57 | 0 | 0.0 | 0.9 | 0.00 | 0.01 | 0.00 | 81 | 1024.3 |
| 20260505172511 | 57 | 0 | 0.0 | 0.9 | 0.00 | 0.03 | 0.00 | 81 | 1024.4 |
| 20260505172012 | 57 | 0 | 0.0 | 0.9 | 0.00 | 0.03 | 0.00 | 81 | 1024.4 |
| 20260505171530 | 57 | 0 | 0.0 | 0.9 | 0.00 | 0.03 | 0.00 | 81 | 1024.5 |
| 20260505171011 | 57 | 0 | 0.0 | 0.9 | 0.00 | 0.03 | 0.00 | 81 | 1024.5 |
| 20260505170510 | 57 | 0 | 0.0 | 0.9 | 0.00 | 0.03 | 0.00 | 81 | 1024.6 |
| 20260505170028 | 57 | 0 | 0.0 | 0.9 | 0.00 | 0.03 | 0.00 | 81 | 1024.5 |
| 20260505165513 | 57 | 0 | 0.0 | 0.9 | 0.00 | 0.03 | 0.00 | 81 | 1024.7 |
| 20260505165011 | 57 | 0 | 0.0 | 1.7 | 0.00 | 0.03 | 0.00 | 81 | 1024.6 |
| 20260505164529 | 57 | 0 | 0.0 | 1.7 | 0.00 | 0.03 | 0.00 | 81 | 1024.7 |
| 20260505164012 | 57 | 246 | 0.0 | 0.9 | 0.00 | 0.03 | 0.00 | 81 | 1024.7 |
| 20260505163510 | 57 | 0 | 0.0 | 0.9 | 0.00 | 0.03 | 0.00 | 81 | 1024.7 |
| 20260505163029 | 57 | 0 | 0.0 | 0.9 | 0.00 | 0.03 | 0.00 | 81 | 1024.8 |
| 20260505162512 | 57 | 0 | 0.0 | 0.9 | 0.00 | 0.03 | 0.00 | 81 | 1024.7 |
| 20260505162010 | 57 | 0 | 0.0 | 0.0 | 0.00 | 0.03 | 0.00 | 81 | 1024.9 |
| 20260505161528 | 57 | 0 | 0.0 | 0.9 | 0.00 | 0.03 | 0.00 | 81 | 1024.9 |
| 20260505161009 | 57 | 0 | 0.0 | 0.9 | 0.00 | 0.03 | 0.00 | 81 | 1024.9 |
| 20260505160511 | 57 | 0 | 0.0 | 0.9 | 0.00 | 0.03 | 0.00 | 81 | 1025.0 |
| 20260505153029 | 58 | 0 | 0.0 | 1.7 | 0.00 | 0.03 | 0.00 | 80 | 1025.1 |
| 20260505152511 | 58 | 246 | 0.0 | 2.6 | 0.00 | 0.03 | 0.00 | 80 | 1025.1 |
| 20260505152011 | 58 | 0 | 0.0 | 2.6 | 0.00 | 0.03 | 0.00 | 80 | 1025.0 |
| 20260505151532 | 58 | 0 | 0.0 | 0.9 | 0.00 | 0.03 | 0.00 | 80 | 1025.1 |
| 20260505151011 | 58 | 0 | 0.0 | 0.0 | 0.00 | 0.03 | 0.00 | 80 | 1025.1 |
| 20260505150513 | 58 | 0 | 0.0 | 0.0 | 0.00 | 0.03 | 0.00 | 79 | 1025.2 |
| 20260505140510 | 57 | 0 | 0.0 | 0.0 | 0.00 | 0.03 | 0.03 | 77 | 1025.3 |
| 20260505125011 | 58 | 0 | 0.0 | 0.0 | 0.00 | 0.03 | 0.03 | 76 | 1026.0 |
| 20260505124532 | 58 | 0 | 0.0 | 0.0 | 0.00 | 0.03 | 0.03 | 76 | 1025.9 |
| 20260505124011 | 58 | 0 | 0.0 | 0.0 | 0.00 | 0.03 | 0.03 | 76 | 1025.9 |
| 20260505123510 | 58 | 0 | 0.0 | 0.0 | 0.00 | 0.03 | 0.03 | 76 | 1025.9 |
| 20260505123029 | 58 | 0 | 0.0 | 0.0 | 0.00 | 0.03 | 0.03 | 76 | 1025.9 |
| 20260505122511 | 58 | 0 | 0.0 | 0.0 | 0.00 | 0.03 | 0.03 | 76 | 1025.9 |
| 20260505122011 | 58 | 0 | 0.0 | 0.0 | 0.00 | 0.03 | 0.03 | 76 | 1025.9 |
| 20260505121530 | 58 | 0 | 0.0 | 0.0 | 0.00 | 0.03 | 0.03 | 76 | 1025.9 |
| 20260505121009 | 58 | 0 | 0.0 | 0.0 | 0.00 | 0.03 | 0.03 | 76 | 1025.9 |
| 20260505120508 | 58 | 0 | 0.0 | 0.0 | 0.00 | 0.03 | 0.03 | 76 | 1025.8 |
| 20260505120032 | 58 | 0 | 0.0 | 0.0 | 0.00 | 0.03 | 0.03 | 76 | 1026.0 |
| 20260505115513 | 57 | 0 | 0.0 | 0.9 | 0.00 | 0.03 | 0.03 | 76 | 1025.8 |
| 20260505115012 | 57 | 0 | 0.0 | 1.7 | 0.00 | 0.03 | 0.03 | 76 | 1025.7 |
| 20260505114530 | 57 | 0 | 0.0 | 1.7 | 0.00 | 0.03 | 0.03 | 76 | 1025.8 |
| 20260505114010 | 57 | 0 | 0.0 | 1.7 | 0.00 | 0.03 | 0.03 | 76 | 1025.7 |
| 20260505113513 | 57 | 0 | 0.0 | 0.9 | 0.00 | 0.03 | 0.03 | 76 | 1025.8 |
| 20260505113027 | 57 | 0 | 0.0 | 0.9 | 0.00 | 0.03 | 0.03 | 76 | 1025.8 |
| 20260505112514 | 57 | 0 | 0.0 | 1.7 | 0.00 | 0.07 | 0.03 | 75 | 1025.8 |
| 20260505112011 | 57 | 0 | 0.0 | 1.7 | 0.00 | 0.07 | 0.03 | 75 | 1025.7 |
| 20260505111528 | 57 | 0 | 0.0 | 1.7 | 0.00 | 0.07 | 0.03 | 75 | 1025.9 |
| 20260505111010 | 57 | 0 | 0.0 | 1.7 | 0.00 | 0.07 | 0.03 | 75 | 1025.9 |
| 20260505110512 | 57 | 0 | 0.0 | 0.9 | 0.00 | 0.07 | 0.03 | 75 | 1026.0 |
| 20260505102009 | 57 | 0 | 0.0 | 0.0 | 0.00 | 0.07 | 0.03 | 73 | 1025.7 |
| 20260505101534 | 57 | 0 | 0.0 | 0.0 | 0.00 | 0.07 | 0.03 | 73 | 1025.8 |
| 20260505101008 | 57 | 0 | 0.0 | 0.0 | 0.00 | 0.07 | 0.03 | 73 | 1025.8 |
| 20260505100511 | 57 | 0 | 0.0 | 0.0 | 0.00 | 0.07 | 0.03 | 73 | 1025.8 |
| 20260505100028 | 56 | 0 | 0.0 | 2.6 | 0.00 | 0.07 | 0.03 | 73 | 1025.8 |
| 20260505095512 | 56 | 0 | 0.0 | 2.6 | 0.00 | 0.07 | 0.03 | 72 | 1025.8 |
| 20260505095014 | 56 | 0 | 0.0 | 0.0 | 0.00 | 0.07 | 0.03 | 72 | 1025.8 |
| 20260505094526 | 56 | 0 | 0.0 | 0.0 | 0.00 | 0.07 | 0.03 | 71 | 1025.8 |
| 20260505094008 | 56 | 0 | 0.0 | 0.0 | 0.00 | 0.07 | 0.03 | 71 | 1025.9 |
| 20260505093509 | 56 | 0 | 0.0 | 0.0 | 0.00 | 0.07 | 0.03 | 71 | 1025.8 |
| 20260505093035 | 56 | 0 | 0.0 | 0.0 | 0.00 | 0.07 | 0.03 | 70 | 1025.8 |
| 20260505092509 | 56 | 0 | 0.0 | 0.0 | 0.00 | 0.07 | 0.03 | 70 | 1025.7 |
| 20260505092012 | 56 | 0 | 0.0 | 0.0 | 0.00 | 0.07 | 0.03 | 70 | 1025.7 |
| 20260505091528 | 56 | 0 | 0.0 | 0.0 | 0.00 | 0.07 | 0.03 | 69 | 1025.6 |
| 20260505091014 | 56 | 0 | 0.0 | 0.0 | 0.00 | 0.07 | 0.03 | 69 | 1025.6 |
| 20260505090508 | 56 | 0 | 0.0 | 0.0 | 0.00 | 0.07 | 0.03 | 69 | 1025.6 |
| 20260505090030 | 57 | 0 | 0.0 | 0.0 | 0.00 | 0.07 | 0.03 | 69 | 1025.5 |
| 20260505085512 | 57 | 0 | 0.0 | 0.0 | 0.00 | 0.07 | 0.03 | 68 | 1025.4 |
| 20260505085012 | 57 | 0 | 0.0 | 0.0 | 0.00 | 0.07 | 0.03 | 68 | 1025.3 |
| 20260505084529 | 57 | 0 | 0.0 | 0.0 | 0.00 | 0.07 | 0.03 | 67 | 1025.3 |
| 20260505084008 | 57 | 0 | 0.0 | 0.0 | 0.00 | 0.07 | 0.03 | 67 | 1025.2 |
| 20260505083513 | 58 | 0 | 0.0 | 0.0 | 0.00 | 0.07 | 0.03 | 67 | 1025.2 |
| 20260505083033 | 58 | 0 | 0.0 | 0.0 | 0.00 | 0.07 | 0.03 | 66 | 1025.1 |
| 20260505082510 | 58 | 0 | 0.0 | 0.0 | 0.00 | 0.07 | 0.03 | 65 | 1025.1 |
| 20260505082009 | 58 | 0 | 0.0 | 0.0 | 0.00 | 0.07 | 0.03 | 65 | 1025.1 |
| 20260505081530 | 59 | 0 | 0.0 | 0.0 | 0.00 | 0.07 | 0.03 | 65 | 1025.1 |
| 20260505081012 | 59 | 0 | 0.0 | 0.0 | 0.00 | 0.07 | 0.03 | 64 | 1025.0 |
| 20260505080511 | 59 | 0 | 0.0 | 0.0 | 0.00 | 0.07 | 0.03 | 64 | 1025.0 |
| 20260505080028 | 60 | 0 | 0.0 | 0.0 | 0.00 | 0.07 | 0.03 | 64 | 1024.9 |
| 20260505075511 | 60 | 0 | 0.0 | 0.0 | 0.00 | 0.07 | 0.03 | 64 | 1024.9 |
| 20260505075011 | 60 | 0 | 0.0 | 0.0 | 0.00 | 0.07 | 0.03 | 64 | 1024.9 |
| 20260505074530 | 61 | 0 | 0.0 | 0.9 | 0.00 | 0.07 | 0.03 | 64 | 1024.9 |
| 20260505074012 | 61 | 0 | 0.0 | 1.7 | 0.00 | 0.07 | 0.03 | 64 | 1024.9 |
| 20260505073513 | 61 | 0 | 0.0 | 1.7 | 0.00 | 0.07 | 0.03 | 64 | 1024.9 |
| 20260505073031 | 61 | 0 | 0.0 | 2.6 | 0.00 | 0.07 | 0.03 | 64 | 1024.9 |
| 20260505072514 | 61 | 0 | 0.0 | 3.5 | 0.00 | 0.07 | 0.03 | 64 | 1024.9 |
| 20260505072011 | 61 | 246 | 0.0 | 4.3 | 0.00 | 0.07 | 0.03 | 63 | 1024.8 |
| 20260505071526 | 62 | 0 | 0.9 | 4.3 | 0.00 | 0.07 | 0.03 | 63 | 1024.8 |
| 20260505071008 | 62 | 245 | 0.9 | 4.3 | 0.00 | 0.07 | 0.03 | 63 | 1024.8 |
| 20260505070514 | 62 | 0 | 0.0 | 3.5 | 0.00 | 0.07 | 0.03 | 63 | 1024.8 |
| 20260505070037 | 62 | 0 | 0.9 | 4.3 | 0.00 | 0.07 | 0.03 | 64 | 1024.8 |
| 20260505065509 | 62 | 0 | 0.0 | 4.3 | 0.00 | 0.07 | 0.03 | 64 | 1024.8 |
| 20260505065008 | 62 | 245 | 0.9 | 6.1 | 0.00 | 0.07 | 0.03 | 64 | 1024.7 |
| 20260505064530 | 62 | 247 | 0.0 | 6.1 | 0.00 | 0.07 | 0.03 | 64 | 1024.8 |
| 20260505064008 | 62 | 244 | 0.9 | 6.1 | 0.00 | 0.07 | 0.03 | 64 | 1024.8 |
| 20260505063508 | 63 | 241 | 0.9 | 4.3 | 0.00 | 0.07 | 0.03 | 64 | 1024.8 |
| 20260505063030 | 63 | 242 | 0.9 | 4.3 | 0.00 | 0.07 | 0.03 | 63 | 1024.7 |
| 20260505062519 | 63 | 246 | 0.9 | 6.1 | 0.00 | 0.07 | 0.03 | 63 | 1024.7 |
| 20260505062013 | 64 | 0 | 0.9 | 6.1 | 0.00 | 0.07 | 0.03 | 62 | 1024.8 |
| 20260505061538 | 64 | 211 | 0.9 | 4.3 | 0.00 | 0.07 | 0.03 | 62 | 1024.7 |
| 20260505061008 | 64 | 202 | 0.9 | 4.3 | 0.00 | 0.07 | 0.03 | 62 | 1024.6 |
| 20260505060512 | 64 | 186 | 0.9 | 4.3 | 0.00 | 0.07 | 0.03 | 63 | 1024.6 |
| 20260505060027 | 65 | 149 | 0.9 | 7.0 | 0.00 | 0.07 | 0.03 | 63 | 1024.5 |
| 20260505055517 | 65 | 245 | 0.9 | 7.0 | 0.00 | 0.07 | 0.03 | 62 | 1024.4 |
| 20260505055016 | 64 | 251 | 1.7 | 7.0 | 0.00 | 0.07 | 0.03 | 61 | 1024.5 |
| 20260505054527 | 64 | 267 | 0.9 | 7.0 | 0.00 | 0.07 | 0.03 | 60 | 1024.5 |
| 20260505054014 | 64 | 267 | 1.7 | 7.0 | 0.00 | 0.07 | 0.03 | 60 | 1024.3 |
| 20260505053511 | 64 | 263 | 0.9 | 5.2 | 0.00 | 0.07 | 0.03 | 59 | 1024.3 |
| 20260505053039 | 64 | 263 | 1.7 | 6.1 | 0.00 | 0.07 | 0.03 | 59 | 1024.3 |
| 20260505052510 | 64 | 265 | 1.7 | 6.1 | 0.00 | 0.07 | 0.03 | 59 | 1024.3 |
| 20260505052012 | 64 | 260 | 1.7 | 5.2 | 0.00 | 0.07 | 0.03 | 59 | 1024.3 |
| 20260505051552 | 64 | 269 | 1.7 | 5.2 | 0.00 | 0.07 | 0.03 | 60 | 1024.3 |